Regional Weather Roundup
Issued by NWS

Home | Current Version | Previous Version | Graphics & Text | Print | Product List | Glossary On
Versions: 1 2 3 4 5 6 7 8 9 10 11 12 13 14 15 16 17 18 19 20 21 22 23 24 25 26 27 28 29 30 31 32 33 34 35 36 37 38 39 40 41 42 43 44 45 46 47 48 49 50
718
ASUS45 KTFX 271110
RWRMT
MONTANA REGIONAL WEATHER ROUNDUP
NATIONAL WEATHER SERVICE GREAT FALLS MT
500 AM MDT WED JUL 27 2016

NOTE: "FAIR" INDICATES FEW OR NO CLOUDS BELOW 12000 FEET WITH NO
SIGNIFICANT WEATHER AND/OR OBSTRUCTIONS TO VISIBILITY.

MTZ001>007-043-271200-
WEST OF THE DIVIDE

CITY           SKY/WX    TMP DP  RH WIND       PRES   REMARKS
MISSOULA       CLEAR     58  51  78 CALM      30.11S
BUTTE          CLEAR     45  39  79 SE5       30.24R
MULLAN PASS    CLEAR     60  42  51 SE3       30.24R
ANACONDA         N/A     52  45  76 S5        30.20R
DEER LODGE       N/A     48  46  93 CALM      30.22R
EUREKA           N/A     55  52  88 CALM      30.11S
HAMILTON         N/A     63  46  55 CALM      30.12S
LIBBY            N/A     55  48  76 CALM      30.10R
PLAINS           N/A     55  47  74 CALM      30.08R
RONAN            N/A     52  48  86 N2        30.13R
$$

MTZ008-052>055-271200-
SOUTHWEST MONTANA

CITY           SKY/WX    TMP DP  RH WIND       PRES   REMARKS
BOZEMAN        CLEAR     52  43  71 E6        30.18
DILLON         CLEAR     50  42  74 S9        30.21R
W YELLOWSTONE  CLOUDY    39  36  87 CALM      30.31S
ENNIS          CLEAR     45  39  81 CALM      30.27R
THREE FORKS      N/A     49  49 100 CALM      30.14F
TWIN BRIDGES     N/A     46  38  74 SE2       30.18R
$$

MTZ009-010-012-014-046-048-049-054-271200-
EAST SLOPES AND CENTRAL MONTANA

CITY           SKY/WX    TMP DP  RH WIND       PRES   REMARKS
CUT BANK       PTCLDY    51  50  96 NW7       30.14S
GREAT FALLS    CLEAR     55  52  89 E6        30.15R
MALMSTROM AFB  CLEAR     53  52  95 E2        30.15R
HELENA         CLEAR     57  51  80 W3        30.14F
CHOTEAU          N/A     52  52 100 CALM      30.16S
CONRAD           N/A     48  48 100 E2        30.14F
$$

MTZ011-013-016-021-045-047-050-051-271200-
NORTH CENTRAL MONTANA

CITY           SKY/WX    TMP DP  RH WIND       PRES   REMARKS
HAVRE          MOCLDY    57  57 100 CALM      30.11R FOG
LEWISTOWN      CLEAR     57  52  83 E3        30.17R
N BAR RANCH      N/A     54  52  94 CALM      30.20R
CHINOOK          N/A     59  59 100 CALM      30.11R
$$

MTZ017>020-022>027-061-062-271200-
NORTHEAST MONTANA

CITY           SKY/WX    TMP DP  RH WIND       PRES   REMARKS
GLASGOW        LGT RAIN  62  60  93 VRB5      30.10R
JORDAN           N/A     63  61  93 NE5       30.09R
SIDNEY         CLOUDY    64  58  80 NW8       30.11F
WOLF POINT     LGT RAIN  63  61  93 NE6       30.09F
PLENTYWOOD       N/A     61  55  82 E5        30.13F
POPLAR           N/A     63  61  94 E6        30.10F
SCOBEY           N/A     60  50  69 E3        30.10F
$$

MTZ028>42-056>058-271200-
SOUTHCENTRAL AND SOUTHEAST MONTANA

CITY           SKY/WX    TMP DP  RH WIND       PRES   REMARKS
BAKER          CLOUDY    62  58  86 N3        30.14R
LIVINGSTON     CLEAR     51  42  71 CALM      30.18S
MILES CITY     PTCLDY    64  58  80 E12       30.08F
EKALAKA          N/A     63  59  87 W3        30.11R
FORSYTH          N/A     64  59  82 E10       30.06F
LAUREL           N/A     62  52  70 CALM      30.11R
ROUNDUP          N/A     60  54  80 CALM      30.04S
$$

REGIONAL REPORTS...DAKOTAS

CITY           SKY/WX    TMP DP  RH WIND       PRES   REMARKS
WILLISTON      CLOUDY    60  54  80 W3        30.14R
MINOT          CLEAR     60  56  86 CALM      30.11R
DICKINSON      CLOUDY    55  54  96 N3        30.09R
CROSBY           N/A     52  52 100 N3        30.16S
WATFORD CITY     N/A    N/A N/A N/A MISG        N/A
BISMARCK       PTCLDY    60  59  96 CALM      30.09R
GRAND FORKS    CLOUDY    63  59  87 N8        30.04S
FARGO          CLOUDY    65  62  90 N9        29.99S
BUFFALO SD       N/A     60  59  96 NE8       30.05F
RAPID CITY     PTCLDY    62  60  93 N5        30.12R
$$

REGIONAL REPORTS...WYOMING/IDAHO/WASHINGTON

CITY           SKY/WX    TMP DP  RH WIND       PRES   REMARKS
GILLETTE       CLOUDY    64  54  69 SW7       30.11F
SHERIDAN       PTCLDY    65  52  62 NW13      30.12R
BUFFALO WY     PTCLDY    64  49  57 NW3       30.17R
CODY           CLEAR     61  43  51 NW3       30.20R
YELLOWSTONE LA   N/A     43  37  79 CALM      30.39R
IDAHO FALLS    CLEAR     50  45  83 N5        30.14S
SALMON         CLEAR     52  43  71 CALM      30.16R
BOISE          CLEAR     68  50  52 S3        30.00R
SPOKANE        PTCLDY    65  53  65 NE6       30.04R
$$

REGIONAL REPORTS...ALBERTA

CITY           SKY/WX    TMP DP  RH WIND       PRES   REMARKS
EDMONTON       PTCLDY    52  50  93 CALM      30.09R VSB 3/8
CALGARY        PTCLDY    59  54  82 VRB2      30.14S
LETHBRIDGE     MOCLDY    54  54 100 W5        30.12S
MEDICINE HAT   CLEAR     59  59 100 CALM      30.11R
WATERTON GATE    N/A     50  46  87 W3          N/A
MILK RIVER       N/A     54  54 100 NW8         N/A
ONEFOUR          N/A     59  55  88 N5          N/A
$$

REGIONAL REPORTS...SASKATCHEWAN

CITY           SKY/WX    TMP DP  RH WIND       PRES   REMARKS
SWIFT CURRENT  CLEAR     55  52  88 E7        30.14R
SASKATOON      PTCLDY    54  52  94 S2        30.16S
CYPRESS HILLS    N/A     55  54  94 E3          N/A
VAL MARIE        N/A     59  57  94 E2          N/A
ROCKGLEN         N/A     55  54  94 N3          N/A
ASSINIBOIA       N/A     54  54 100 S5          N/A
$$




USA.gov is the U.S. government's official web portal to all federal, state and local government web resources and services.